CAPE
0 0 0 0 0 0 0 0 0 0 0 0 0 0 0 0 0 0 0 0 7 103 104 154 105 70 83 78 20 340 1264 1440 1442 1415 1381 1335 1406 1396 1327 1260 1231 1094 945 870 815 776 869 922 949 1009 1187 1358 1289 1267 1425 1590 1763 1826 1850 1906 1950 1951 1841 1786 1772 1671 1361 1399 1298 1141 1189 1061 711 448 398 333 0 0 0 0 0 0 0 0 0 0
0 0 0 0 0 0 0 0 0 0 0 0 0 0 0 0 0 0 0 0 2 90 36 66 86 99 124 96 66 115 933 1124 1268 1375 1377 1377 1375 1388 1344 1280 1203 1152 1065 965 939 896 938 1016 1002 1010 1126 1392 1327 1295 1458 1624 1764 1790 1850 1894 1954 1899 1783 1794 1740 1461 1230 1330 1189 1166 1123 928 649 470 391 309 0 0 0 0 0 0 0 0 0 0
0 0 0 0 0 0 0 0 0 0 0 0 0 0 0 0 0 0 0 0 0 1 0 13 94 108 102 91 318 136 390 606 837 1073 1178 1270 1326 1321 1324 1302 1212 1167 1158 1086 1031 988 989 1064 1070 1070 1087 1268 1330 1292 1457 1658 1800 1769 1820 1849 1897 1801 1755 1792 1680 1259 1191 1226 1212 1148 1018 863 658 485 376 273 0 0 0 0 0 0 0 0 0 0
0 0 0 0 0 0 0 0 0 0 0 0 0 0 0 0 0 0 0 0 0 1 8 0 39 0 0 0 0 0 365 442 488 773 984 1098 1175 1182 1224 1260 1231 1168 1138 1132 1096 1066 1095 1127 1122 1134 1100 1142 1301 1298 1397 1691 1827 1770 1782 1775 1778 1770 1757 1737 1594 1157 1146 1187 1204 1083 939 796 717 492 337 30 0 0 0 0 0 0 0 0 0 0
0 0 0 0 0 0 0 0 0 0 0 0 0 0 0 0 0 0 0 0 0 0 0 0 0 0 0 0 0 0 2 73 299 418 665 895 1006 1056 1054 1112 1178 1170 1124 1129 1108 1104 1224 1264 1175 1193 1150 1108 1270 1302 1329 1666 1807 1796 1768 1731 1741 1774 1774 1708 1481 1113 1110 1149 1106 1002 879 765 615 425 296 0 0 0 0 0 0 0 0 0 0 0
0 0 0 0 0 0 0 0 0 0 0 0 0 0 0 0 0 0 0 0 0 0 0 0 0 0 0 0 0 0 0 2 37 210 391 502 746 870 921 919 960 1078 1134 1119 1107 1110 1200 1356 1265 1235 1212 1144 1230 1323 1280 1580 1778 1804 1745 1727 1734 1757 1732 1667 1460 1065 1097 1128 1030 911 799 674 467 328 237 189 0 0 0 0 0 0 0 0 0 0
0 0 0 0 0 0 0 0 0 0 0 0 0 0 0 0 0 0 0 0 0 0 0 0 0 0 0 0 0 0 0 0 0 41 85 354 464 573 706 761 761 779 987 1116 1141 1123 1104 1326 1391 1337 1304 1183 1193 1348 1264 1487 1707 1773 1747 1727 1717 1732 1676 1614 1453 1055 1062 1094 1001 863 748 584 379 272 207 223 165 0 0 0 0 0 0 0 0 0
0 0 0 0 0 0 0 0 0 0 0 0 0 0 0 0 0 0 0 0 0 0 0 0 0 0 0 0 0 0 0 0 0 0 0 10 301 458 531 571 621 652 736 946 1058 1118 1093 1134 1425 1471 1425 1311 1216 1338 1332 1440 1638 1726 1733 1708 1713 1739 1694 1569 1453 1118 1050 1097 992 850 723 562 370 176 163 226 177 62 0 0 0 0 0 0 0 0
0 0 0 0 0 0 0 0 0 0 0 0 0 0 0 0 0 0 0 0 0 0 0 0 0 0 0 0 0 0 0 0 1 52 188 172 1 221 416 514 551 543 525 710 846 961 1030 1024 1193 1479 1527 1481 1316 1426 1472 1455 1610 1688 1703 1701 1725 1761 1762 1592 1466 1234 1087 1113 1000 855 710 580 456 274 292 261 193 174 153 0 0 0 0 0 0 0
0 0 0 0 0 0 0 0 0 0 0 0 0 0 0 0 0 0 0 0 0 0 0 0 0 0 0 0 0 0 8 110 407 584 496 299 238 330 261 323 428 473 461 486 637 736 837 908 927 1260 1524 1598 1544 1518 1619 1526 1577 1659 1678 1689 1714 1784 1782 1608 1452 1296 1158 1139 1020 855 755 637 494 388 358 300 226 195 165 0 0 0 0 0 0 0
0 0 0 0 0 0 0 0 0 0 0 0 0 0 0 0 0 0 0 0 0 0 0 0 0 0 0 0 266 535 730 682 710 728 538 332 340 375 342 322 352 390 398 386 404 550 623 712 821 1062 1411 1608 1662 1625 1668 1620 1584 1619 1646 1664 1700 1791 1762 1592 1433 1275 1187 1111 1030 872 747 660 531 398 400 224 173 216 181 0 0 0 0 0 0 0
0 0 0 0 0 0 0 0 0 0 0 0 0 0 0 0 0 0 0 0 0 0 0 0 0 0 0 0 462 953 886 990 888 697 475 376 395 446 442 377 361 365 376 393 404 400 462 577 836 1052 1303 1549 1710 1715 1711 1680 1594 1571 1576 1594 1645 1691 1692 1560 1434 1293 1191 1115 1006 900 772 678 576 453 359 117 76 209 156 0 0 0 0 0 0 0
0 0 0 0 0 0 0 0 0 0 0 0 0 0 0 0 0 0 0 0 0 0 0 0 0 0 0 0 626 1194 1435 1532 1443 791 505 529 512 545 540 500 450 401 394 400 410 409 404 593 876 1067 1210 1474 1720 1788 1733 1687 1602 1523 1497 1513 1556 1609 1619 1561 1427 1306 1112 1061 986 891 800 703 653 626 384 0 0 13 10 0 0 0 0 0 0 0
0 0 0 0 0 0 0 0 0 0 0 0 0 0 0 0 0 0 0 0 0 0 0 0 0 0 0 0 741 1466 1817 1984 1872 1831 1595 976 741 692 695 693 678 654 624 605 570 528 465 550 845 1030 1156 1369 1633 1786 1783 1706 1636 1571 1540 1533 1541 1579 1595 1530 1369 1181 1031 992 1022 917 817 698 604 543 406 378 115 0 0 0 0 0 0 0 0 0
0 0 0 0 0 0 0 0 0 0 0 0 0 0 0 0 0 0 0 0 0 0 0 0 0 0 0 3 392 1531 2137 2352 2390 2304 2127 1906 1609 1202 1026 957 890 804 774 712 673 659 593 569 770 1031 1134 1270 1481 1720 1812 1778 1702 1627 1586 1511 1494 1525 1543 1495 1326 1121 1083 1023 930 789 633 684 631 528 371 374 360 216 0 0 0 0 0 0 0 0
0 0 0 0 0 0 0 0 0 0 0 0 0 0 0 0 0 0 0 0 0 0 0 0 0 0 0 0 324 845 2117 2412 2494 2523 2375 2205 2051 1938 1767 1561 1372 1236 1078 1005 924 812 720 649 749 1070 1188 1255 1363 1578 1742 1808 1766 1642 1580 1513 1446 1431 1452 1300 1212 1076 964 885 807 710 698 641 521 443 431 373 327 234 110 58 50 57 0 0 0 0
0 0 0 0 0 0 0 0 0 0 0 0 0 0 0 0 0 0 0 0 0 0 0 0 0 0 0 59 461 489 1002 2094 2415 2454 2486 2474 2355 2302 2303 2219 2141 2062 1938 1698 1486 1326 1190 1031 916 1114 1319 1344 1358 1450 1605 1743 1792 1712 1581 1465 1404 1415 1418 1313 1083 956 864 873 898 718 630 542 474 424 443 349 278 159 202 81 65 36 43 0 0 0
0 0 0 0 0 0 0 0 0 0 0 0 0 0 0 0 0 0 0 0 0 0 0 0 0 0 75 153 321 872 746 1594 2470 2313 2409 2557 2513 2506 2392 2303 2278 2260 2320 2229 2067 1798 1521 1364 1227 1236 1462 1502 1468 1442 1489 1611 1737 1804 1739 1538 1466 1389 1364 1203 1031 691 720 670 783 832 775 658 594 456 290 369 283 222 128 94 32 35 39 4 0 0
0 0 0 0 0 0 0 0 0 0 0 0 0 0 0 0 0 0 0 0 0 0 0 0 1 97 0 5 325 1040 848 1301 2298 2358 2510 2508 2520 2460 2446 2399 2447 2488 2471 2462 2404 2253 2080 1822 1572 1520 1624 1722 1668 1586 1556 1542 1639 1724 1708 1686 1466 1313 896 785 688 420 586 384 667 688 653 681 624 492 353 330 258 172 98 70 52 57 68 6 0 0
0 0 0 0 0 0 0 0 0 0 0 0 0 0 0 0 0 0 0 0 0 0 0 0 0 39 0 230 899 1029 1114 1565 2282 2414 2515 2612 2536 2534 2564 2554 2620 2535 2514 2507 2449 2322 2256 2125 2064 1925 1789 1873 1913 1895 1781 1678 1671 1689 1673 1639 1606 1312 230 0 6 42 339 546 594 687 667 566 564 452 311 302 178 131 33 74 6 42 11 0 0 0
0 0 0 0 0 0 0 0 0 0 0 0 0 0 0 0 0 0 0 0 0 0 0 0 0 0 169 454 1088 1054 1514 2212 2395 2382 2598 2600 2614 2636 2661 2651 2660 2653 2575 2590 2543 2316 2270 2117 1888 1553 1584 1742 1910 1959 1982 1916 1849 1749 1730 1748 1660 1526 993 98 111 241 844 764 830 645 708 577 470 434 343 222 98 193 52 53 12 0 0 0 0 0
0 0 0 0 0 0 0 0 0 0 0 0 0 0 0 0 0 0 0 0 0 0 0 0 0 0 794 1327 1393 1858 2292 2452 2697 2667 2730 2634 2617 2632 2715 2667 2785 2705 2637 2685 2614 2391 2463 2137 1827 1582 1524 1538 1740 1870 1952 1950 1918 1840 1850 1754 1693 1736 50 41 259 346 568 592 776 724 732 542 505 268 341 190 132 94 18 8 0 4 0 0 0 0
0 0 0 0 0 0 0 0 0 0 0 0 0 0 0 0 0 0 0 0 0 0 0 0 0 0 1064 1652 1736 2172 2702 2733 2743 2832 2811 2630 2539 2584 2507 2668 2747 2659 2707 2716 2575 2368 2374 2206 2147 1973 1862 1812 1798 1717 1745 1829 1888 1891 1834 1354 1178 1115 159 35 208 545 596 259 293 583 618 448 365 338 222 92 117 62 23 0 0 0 0 0 0 0
80 0 0 0 0 0 0 0 0 0 0 0 0 0 0 0 0 0 0 0 0 0 71 93 14 256 1282 1403 1879 2097 2952 2989 2948 2983 2882 2525 2488 2551 2418 2427 2630 2508 2563 2527 2216 2169 2108 2026 1958 1849 1653 1574 1536 1553 1671 1652 1648 1702 1658 1436 1198 786 423 425 571 316 140 0 0 376 472 340 261 105 16 51 0 0 0 0 0 0 0 0 0 0
0 0 0 0 0 0 0 0 0 0 0 0 0 0 0 0 0 0 0 0 0 0 0 0 0 222 1084 1697 2166 2696 2901 2847 2874 2873 2792 2726 2560 2462 2468 2430 2442 2302 2153 1945 1782 1732 1622 1489 1354 1248 1238 1210 1102 1152 1232 1438 1365 1380 1310 1271 1058 960 573 539 300 0 64 0 0 124 221 293 145 122 81 5 0 0 0 3 0 0 0 0 0 0
0 0 0 0 0 0 0 0 0 0 0 0 0 0 0 0 0 0 0 0 0 19 0 59 0 510 1283 1918 2642 2852 2801 2796 2822 2773 2808 2732 2580 2406 2320 2264 2221 2136 1952 1502 1384 1330 1365 1260 1141 1036 1024 906 954 912 973 1042 1098 1074 1052 838 851 715 730 470 240 312 289 302 0 212 265 66 131 44 98 0 0 0 1 0 0 0 0 0 0 0
0 0 0 0 0 0 0 0 0 0 0 0 0 0 0 0 0 0 0 0 0 0 26 0 411 754 1280 2010 2666 2809 2857 2713 2706 2669 2747 2633 2550 2358 2230 2206 2066 1965 1525 1395 1566 1451 1283 1060 997 1061 1034 855 766 793 872 887 735 690 678 651 563 602 470 419 268 347 540 553 606 530 48 0 164 57 0 0 0 0 0 0 0 0 0 0 0 0
0 0 0 0 0 0 0 0 0 52 0 0 0 0 0 0 0 0 0 0 31 6 215 604 694 713 900 1630 2501 2817 2847 2710 2615 2706 2651 2663 2490 2382 2274 2134 1997 1696 1294 1529 1560 1317 1010 890 1002 1130 1107 860 780 684 734 656 528 532 519 400 288 133 281 344 337 406 530 566 637 552 195 118 150 32 0 0 0 0 0 0 0 0 0 0 0 0
0 0 0 0 0 0 0 0 0 0 0 0 0 0 6 0 0 0 0 0 154 17 57 574 826 498 529 1380 1943 2514 2665 2505 2502 2612 2619 2543 2448 2410 2342 2132 1898 1454 1358 1614 1549 1350 972 952 1031 1043 980 877 791 680 582 572 502 456 342 271 113 114 197 231 296 320 393 489 588 407 246 161 18 0 0 0 0 0 0 0 0 0 0 0 0 0
0 0 0 0 0 0 0 0 0 0 0 0 12 124 207 96 1 144 268 307 188 94 270 807 848 411 798 1084 1493 1564 2297 2466 2469 2589 2575 2567 2466 2482 2440 2032 1884 1341 1366 1589 1630 1422 1121 961 984 808 825 833 777 673 552 469 452 451 297 72 55 41 9 140 24 160 311 349 218 112 0 80 0 0 0 0 0 0 0 0 0 0 0 0 0 0
0 0 176 0 0 0 0 0 0 0 0 0 327 383 387 338 408 542 440 595 609 957 1071 949 849 810 856 1469 1573 1831 1854 2422 2538 2570 2554 2503 2424 2458 2309 1958 1669 1169 1186 1381 1680 1428 1226 1005 848 833 732 760 694 582 491 390 506 434 201 72 219 362 79 0 0 0 0 0 0 0 0 0 0 0 0 0 0 0 0 0 0 0 0 0 0 0
0 0 0 0 0 0 0 0 0 0 144 311 316 352 296 266 269 247 342 338 347 632 1045 1033 749 550 740 1770 2234 2369 2390 2478 2572 2565 2550 2389 2410 2341 2120 1795 1453 1347 1154 1341 1732 1508 1333 989 770 732 656 720 569 565 393 450 476 325 58 133 262 375 391 174 0 0 0 0 0 0 0 0 0 0 0 0 0 0 0 0 0 0 0 0 0 0
0 0 0 0 0 0 0 0 0 0 0 98 237 214 234 214 311 537 666 799 714 965 717 397 436 463 1170 2110 2299 2494 2506 2518 2518 2435 2367 2361 2280 2183 1926 1654 1462 1326 1258 1509 1702 1665 1378 1022 770 683 713 626 449 372 382 456 423 294 84 0 353 40 0 0 0 0 0 0 0 0 0 0 0 0 0 0 0 0 0 0 0 0 0 0 0 0
0 0 0 0 0 0 0 0 0 0 0 65 108 57 192 196 350 252 398 759 784 574 474 397 399 494 1393 2112 2018 2404 2343 2372 2288 2231 2223 2032 1860 1935 1778 1594 1414 1366 1354 1618 1701 1705 1537 1183 903 628 596 550 499 360 395 374 305 67 0 0 0 0 8 247 0 0 0 0 0 0 0 0 0 0 0 0 0 0 0 0 0 0 0 0 0 0
0 0 0 0 0 0 0 0 0 0 0 0 0 139 251 225 263 394 545 858 1024 783 579 635 653 373 1471 1901 1896 1994 2150 2188 2180 2158 2018 1742 1591 1596 1586 1423 1397 1276 1358 1666 1718 1726 1694 1351 1138 839 744 532 380 358 310 254 234 0 128 0 0 0 254 198 0 0 0 0 0 0 0 0 0 0 0 0 0 0 0 0 0 0 0 0 0 0
0 0 0 0 0 0 0 0 0 0 0 0 148 165 415 498 693 524 442 674 1049 980 822 526 325 678 1505 1994 2031 2000 2116 2117 1950 1906 1798 1524 1345 1400 1433 1369 1266 1305 1351 1641 1690 1801 1729 1526 1317 995 833 684 376 326 207 201 181 109 104 0 0 0 145 113 0 0 0 0 0 0 0 0 0 0 0 0 0 0 0 0 0 0 0 0 0 0
0 0 0 0 0 0 0 0 0 0 0 36 18 202 511 549 376 198 195 171 622 1011 928 581 482 1305 1880 2066 2072 2093 2081 1641 1486 1293 1507 1319 1238 1207 1225 1244 1242 1234 1404 1598 1727 1810 1755 1642 1312 1078 867 646 473 402 91 97 112 148 157 57 45 0 23 0 0 0 0 0 0 0 0 0 0 0 0 0 0 0 0 0 0 0 0 0 0 0
0 0 0 0 0 0 0 0 0 0 0 0 0 121 164 260 284 452 19 258 430 846 927 768 497 1548 1771 1963 2082 2074 1686 1068 849 970 1294 1365 1159 1150 1119 1093 1119 1218 1427 1782 1896 1900 1880 1673 1326 1081 887 709 468 488 82 7 90 159 176 153 76 0 0 0 0 0 0 0 0 0 0 0 0 0 0 0 0 0 0 0 0 0 0 0 0 0
0 0 0 0 0 0 0 0 0 0 0 0 0 0 85 196 268 893 45 215 462 530 1053 889 544 1350 1675 1753 2034 1874 1488 671 392 513 1330 1473 1271 1214 1179 1151 1148 1102 1273 1708 1871 1971 1954 1708 1339 1069 876 672 470 503 85 2 108 175 202 221 72 0 0 0 0 0 0 0 0 0 0 0 0 0 0 0 0 0 0 0 0 0 0 0 0 0
0 0 0 0 0 0 0 0 0 0 0 0 0 0 0 0 496 174 387 323 45 559 1077 989 827 1112 1611 1805 1864 1721 1078 546 361 380 1208 1629 1397 1421 1226 1298 1224 1137 1344 1716 1820 1958 1948 1715 1353 1027 868 651 464 380 0 93 41 0 0 10 0 0 0 0 0 0 0 0 0 0 0 0 0 0 0 0 0 0 0 0 0 0 0 0 0 2
0 0 0 0 0 0 0 0 0 0 0 0 0 0 0 0 2 4 134 127 0 609 1185 1095 856 1043 1504 1758 1838 1548 1100 853 873 575 1350 1747 1671 1598 1509 1460 1271 1308 1463 1643 1870 2014 1912 1731 1396 1053 873 734 440 483 0 13 0 0 0 0 0 0 0 0 0 0 0 0 0 0 0 0 0 0 0 0 0 0 0 0 0 0 0 0 0 0
0 0 0 0 0 0 0 0 0 0 0 0 0 0 117 153 271 21 58 0 23 762 1221 1212 1074 1085 1429 1686 1689 1174 878 572 948 1379 1672 1732 1669 1576 1500 1467 1431 1553 1732 1789 1926 2040 1900 1690 1366 1056 818 749 532 498 177 0 0 0 0 0 0 0 0 0 0 0 0 0 0 0 0 0 0 0 0 0 0 0 0 0 0 0 0 0 0 0
0 0 0 0 0 0 0 0 0 0 0 0 0 43 6 198 22 0 250 4 46 1027 1309 1271 1194 1096 1252 1534 1471 1067 944 1200 1470 1626 1740 1689 1639 1546 1564 1574 1675 1707 1813 1892 1951 2053 1886 1591 1273 1014 788 750 586 505 474 0 0 0 0 0 0 0 0 0 0 0 0 0 0 0 0 0 0 0 0 0 0 0 0 0 0 0 0 0 0 0
0 14 0 0 0 0 0 0 0 0 0 0 0 112 0 0 256 59 175 729 946 1202 1302 1395 1351 1208 1202 1334 1280 1167 1353 1459 1680 1659 1758 1749 1669 1672 1653 1705 1793 1858 1898 1962 1953 2003 1884 1490 1122 858 760 701 628 557 541 0 0 0 0 0 0 0 0 0 0 0 0 0 0 0 0 0 0 0 0 0 0 0 0 0 0 0 0 0 0 0
0 0 0 0 0 0 0 0 0 0 0 0 0 0 0 0 0 129 614 762 1091 1247 1556 1350 1342 1240 1185 1185 1224 1128 1352 1509 1624 1699 1676 1612 1668 1688 1710 1733 1831 1852 1892 1902 1906 1888 1760 1433 1167 830 670 636 651 577 575 325 0 0 0 0 0 0 0 0 0 0 0 0 0 0 0 0 0 0 0 3 2 0 0 0 0 0 0 0 0 0
0 0 0 0 0 0 0 0 0 0 214 510 147 0 0 7 0 404 854 941 1227 1368 1489 1442 1388 1278 1265 1237 1220 1174 1237 1366 1542 1598 1576 1586 1659 1706 1744 1785 1781 1763 1784 1797 1810 1769 1599 1398 1109 875 616 525 561 597 585 538 0 0 0 0 0 0 0 0 0 0 0 0 0 0 0 0 0 0 0 0 0 0 0 0 0 0 0 0 0 0
0 0 0 0 0 0 185 14 0 0 511 515 462 529 512 452 517 693 969 1099 1264 1525 1569 1508 1400 1356 1284 1273 1279 1213 1150 1252 1534 1574 1580 1610 1670 1712 1718 1746 1736 1711 1690 1690 1683 1598 1406 1222 932 749 482 477 468 541 569 523 115 137 0 0 0 0 0 0 0 0 0 0 0 0 0 0 0 0 0 0 2 0 0 0 0 0 0 0 0 0
0 0 0 0 0 39 204 0 0 374 524 553 597 508 551 605 817 1063 1200 1274 1445 1622 1606 1502 1409 1348 1414 1353 1326 1124 1122 1261 1419 1525 1608 1635 1683 1713 1722 1739 1691 1608 1598 1562 1547 1401 1184 918 594 559 468 392 407 453 474 429 299 0 0 0 0 0 0 0 0 0 0 0 0 0 0 0 0 2 10 11 6 3 1 0 0 0 0 0 0 0
0 0 0 0 0 407 65 20 0 367 780 580 472 516 572 754 766 998 1204 1202 1361 1407 1396 1323 1254 1359 1392 1348 1168 1032 1167 1300 1329 1465 1601 1642 1715 1731 1725 1768 1655 1580 1509 1455 1385 1176 962 661 515 380 14 284 335 382 342 260 214 0 0 0 0 0 0 20 35 0 0 0 0 0 0 0 0 10 19 15 13 6 1 0 0 0 0 0 0 0
0 0 0 0 70 295 323 269 8 100 0 70 363 430 562 715 852 870 1034 1132 1220 1263 1354 1442 1455 1383 1302 1148 1097 1088 1116 1276 1366 1472 1565 1643 1778 1774 1738 1756 1650 1563 1440 1320 1207 1014 876 666 456 0 0 255 236 217 138 83 111 126 0 0 14 0 0 45 56 24 0 0 0 0 0 5 16 33 34 27 15 5 0 0 0 0 0 1 5 0
0 0 0 0 0 331 392 58 262 175 16 458 516 271 502 540 732 781 576 1031 1420 1473 1545 1543 1568 1504 1427 1314 1190 1166 1157 1203 1436 1538 1582 1623 1790 1808 1777 1757 1666 1548 1401 1242 1089 910 834 676 555 390 76 48 109 76 53 28 47 89 72 64 35 25 19 81 86 71 47 36 38 32 23 32 23 24 23 20 0 0 0 0 0 0 0 0 1 1
Wind_Speed
nan nan nan nan nan nan nan nan nan nan nan nan nan nan nan nan nan nan nan nan nan 13 14 18 18 nan nan nan nan 12 13 14 15 18 22 24 26 27 25 27 34 36 37 30 29 28 29 25 20 18 17 18 18 17 18 20 22 24 25 25 26 26 26 26 26 26 28 29 27 25 26 26 24 21 18 18 nan nan nan nan nan nan nan nan nan nan
nan nan nan nan nan nan nan nan nan nan nan nan nan nan nan nan nan nan nan nan nan nan nan nan nan nan 18 nan nan 10 12 15 20 20 19 24 25 25 25 26 32 33 24 28 29 29 28 24 22 19 17 18 20 18 19 21 23 24 25 26 25 26 27 28 29 29 30 30 31 30 28 26 25 23 20 17 nan nan nan nan nan nan nan nan nan nan
nan nan nan nan nan nan nan nan nan nan nan nan nan nan nan nan nan nan nan nan nan nan nan nan nan 17 17 nan 7 14 16 13 18 21 21 22 23 23 23 26 27 26 29 29 30 30 29 27 24 22 20 19 22 23 24 23 23 24 25 25 25 25 27 27 30 31 31 31 31 31 28 28 24 19 18 17 nan nan nan nan nan nan nan nan nan nan
nan nan nan nan nan nan nan nan nan nan nan nan nan nan nan nan nan nan nan nan nan nan nan nan nan nan nan nan nan nan 19 14 11 13 11 14 20 23 26 27 27 28 28 32 33 33 30 28 26 23 22 21 21 22 22 23 24 24 25 26 27 27 26 27 29 29 31 33 32 30 31 26 24 23 20 nan nan nan nan nan nan nan nan nan nan nan
nan nan nan nan nan nan nan nan nan nan nan nan nan nan nan nan nan nan nan nan nan nan nan nan nan nan nan nan nan nan nan nan 10 6 6 9 13 15 15 19 24 29 30 29 29 31 31 30 28 26 22 21 22 23 25 26 25 24 28 28 29 29 29 29 30 32 33 34 33 32 30 29 27 22 21 nan nan nan nan nan nan nan nan nan nan nan
nan nan nan nan nan nan nan nan nan nan nan nan nan nan nan nan nan nan nan nan nan nan nan nan nan nan nan nan nan nan nan nan nan 8 14 12 12 12 17 20 19 22 26 32 33 34 33 32 28 24 24 23 23 24 26 27 27 28 29 30 30 29 30 32 33 35 35 36 37 36 36 34 31 29 25 25 nan nan nan nan nan nan nan nan nan nan
nan nan nan nan nan nan nan nan nan nan nan nan nan nan nan nan nan nan nan nan nan nan nan nan nan nan nan nan nan nan nan nan nan nan nan 7 11 13 15 14 18 22 24 26 27 27 29 30 29 28 27 26 25 26 26 26 26 29 31 33 33 32 32 33 35 38 37 38 38 41 40 39 37 35 26 25 24 nan nan nan nan nan nan nan nan nan
nan nan nan nan nan nan nan nan nan nan nan nan nan nan nan nan nan nan nan nan nan nan nan nan nan nan nan nan nan nan nan nan nan nan nan nan 7 11 9 11 14 19 24 28 29 30 31 32 34 36 34 30 29 28 27 27 28 31 31 33 34 33 33 33 36 38 40 41 41 42 42 40 38 37 35 29 26 nan nan nan nan nan nan nan nan nan
nan nan nan nan nan nan nan nan nan nan nan nan nan nan nan nan nan nan nan nan nan nan nan nan nan nan nan nan nan nan nan nan nan nan 5 4 nan 6 6 11 17 21 25 28 29 32 33 35 36 35 34 31 28 29 31 31 31 31 32 33 33 35 36 35 38 39 40 42 44 46 45 44 40 40 40 35 29 27 27 nan nan nan nan nan nan nan
nan nan nan nan nan nan nan nan nan nan nan nan nan nan nan nan nan nan nan nan nan nan nan nan nan nan nan nan nan nan nan 1 5 6 7 2 4 13 18 19 22 23 24 26 31 34 35 35 36 34 32 32 32 31 31 31 33 34 34 35 36 37 37 37 38 37 39 41 44 45 45 48 46 43 42 39 34 29 28 nan nan nan nan nan nan nan
nan nan nan nan nan nan nan nan nan nan nan nan nan nan nan nan nan nan nan nan nan nan nan nan nan nan nan nan 12 10 6 7 7 4 2 6 8 15 19 23 26 27 26 27 30 32 34 32 31 33 36 35 33 32 34 35 36 36 37 38 39 39 39 40 39 38 39 41 43 44 45 45 45 44 44 41 36 32 30 nan nan nan nan nan nan nan
nan nan nan nan nan nan nan nan nan nan nan nan nan nan nan nan nan nan nan nan nan nan nan nan nan nan nan nan 13 14 8 6 5 4 4 3 8 14 18 22 28 27 27 29 31 32 30 27 28 31 33 35 35 34 35 36 37 38 39 40 41 40 41 41 42 40 38 38 40 42 44 41 39 41 38 39 nan 34 32 nan nan nan nan nan nan nan
nan nan nan nan nan nan nan nan nan nan nan nan nan nan nan nan nan nan nan nan nan nan nan nan nan nan nan nan 13 6 4 3 3 2 3 5 9 13 17 23 26 25 27 30 32 32 31 31 32 32 32 33 35 35 36 38 39 39 39 42 43 43 45 45 46 43 38 33 35 39 41 40 38 37 35 nan nan nan nan nan nan nan nan nan nan nan
nan nan nan nan nan nan nan nan nan nan nan nan nan nan nan nan nan nan nan nan nan nan nan nan nan nan nan nan 10 6 2 3 3 3 5 7 9 11 14 16 17 22 27 31 33 33 33 33 32 32 33 33 31 32 34 37 39 39 39 42 44 45 49 50 50 50 44 35 33 34 36 37 37 37 36 35 33 nan nan nan nan nan nan nan nan nan
nan nan nan nan nan nan nan nan nan nan nan nan nan nan nan nan nan nan nan nan nan nan nan nan nan nan nan nan 8 5 3 3 4 5 6 9 11 14 14 15 16 19 22 24 28 31 33 34 34 34 33 32 31 31 33 35 37 41 42 44 47 48 49 53 54 56 54 47 44 39 35 36 37 39 39 38 38 40 nan nan nan nan nan nan nan nan
nan nan nan nan nan nan nan nan nan nan nan nan nan nan nan nan nan nan nan nan nan nan nan nan nan nan nan nan 5 3 5 6 4 4 7 10 10 12 14 14 14 17 21 25 27 27 29 30 32 34 34 33 32 33 35 37 41 45 44 44 48 50 52 56 60 58 55 52 51 46 37 35 37 40 43 44 43 41 39 nan nan nan nan nan nan nan
nan nan nan nan nan nan nan nan nan nan nan nan nan nan nan nan nan nan nan nan nan nan nan nan nan nan nan nan 7 9 9 9 6 6 10 11 11 14 16 15 17 20 23 26 29 32 35 39 40 40 39 36 34 35 37 39 42 45 45 45 46 45 50 55 60 61 56 50 50 48 42 37 37 39 43 45 47 45 40 nan nan nan nan nan nan nan
nan nan nan nan nan nan nan nan nan nan nan nan nan nan nan nan nan nan nan nan nan nan nan nan nan nan nan 5 4 8 8 8 8 8 11 14 13 17 14 16 18 20 23 26 29 34 40 43 43 40 38 36 34 36 36 36 38 38 41 45 42 43 45 44 54 69 60 39 40 45 41 36 36 38 40 42 46 46 43 nan nan nan nan nan nan nan
nan nan nan nan nan nan nan nan nan nan nan nan nan nan nan nan nan nan nan nan nan nan nan nan nan nan nan nan 9 9 9 8 9 10 14 15 16 17 16 16 19 21 23 25 29 35 37 38 37 37 36 33 32 32 31 29 29 30 33 34 32 33 27 15 37 73 67 36 31 37 38 37 36 36 37 36 38 42 nan nan nan nan nan nan nan nan
nan nan nan nan nan nan nan nan nan nan nan nan nan nan nan nan nan nan nan nan nan nan nan nan nan nan nan 12 14 13 12 14 16 17 19 19 20 20 20 21 22 24 25 28 33 38 38 36 34 33 32 31 30 29 26 23 23 30 32 29 29 29 24 nan nan nan 41 17 20 27 29 32 29 27 29 29 29 33 nan nan nan nan nan nan nan nan
nan nan nan nan nan nan nan nan nan nan nan nan nan nan nan nan nan nan nan nan nan nan nan nan nan nan 8 12 15 13 14 18 23 24 24 24 24 24 24 26 26 27 29 31 34 37 36 35 33 33 32 31 29 26 24 22 25 29 26 25 27 24 21 nan 36 29 24 22 20 25 22 20 19 22 25 26 nan 27 nan nan nan nan nan nan nan nan
nan nan nan nan nan nan nan nan nan nan nan nan nan nan nan nan nan nan nan nan nan nan nan nan nan nan 7 12 12 12 15 22 24 28 28 28 27 27 29 30 31 30 30 31 32 35 35 34 34 33 31 28 25 23 24 21 23 28 27 24 20 13 nan nan 19 15 33 31 29 33 19 12 14 18 21 22 20 nan nan nan nan nan nan nan nan nan
nan nan nan nan nan nan nan nan nan nan nan nan nan nan nan nan nan nan nan nan nan nan nan nan nan nan 11 10 12 15 18 23 26 28 28 28 30 31 33 34 33 32 30 29 32 35 34 34 33 33 31 28 25 22 21 21 23 28 29 25 18 13 18 nan 25 22 23 21 27 28 13 12 13 15 19 nan 18 nan nan nan nan nan nan nan nan nan
nan nan nan nan nan nan nan nan nan nan nan nan nan nan nan nan nan nan nan nan nan nan nan nan nan 12 12 11 12 16 20 21 22 26 31 32 34 34 34 35 32 30 29 29 33 34 33 33 33 31 28 26 24 23 21 23 24 27 28 30 27 23 18 21 23 22 20 nan nan 21 14 13 12 14 nan nan nan nan nan nan nan nan nan nan nan nan
nan nan nan nan nan nan nan nan nan nan nan nan nan nan nan nan nan nan nan nan nan nan nan nan nan 12 13 12 18 23 24 25 26 28 32 34 36 36 34 33 30 26 26 27 28 30 31 33 32 31 28 25 23 21 18 20 22 26 25 25 27 24 21 22 19 nan nan nan nan 17 11 10 11 14 nan nan nan nan nan nan nan nan nan nan nan nan
nan nan nan nan nan nan nan nan nan nan nan nan nan nan nan nan nan nan nan nan nan nan nan nan nan 11 11 14 20 22 25 25 25 28 32 35 36 36 32 30 28 26 25 24 24 26 28 30 29 27 28 27 25 22 19 19 21 22 24 27 26 24 23 24 20 16 18 19 nan 11 10 nan 11 nan nan nan nan nan nan nan nan nan nan nan nan nan
nan nan nan nan nan nan nan nan nan nan nan nan nan nan nan nan nan nan nan nan nan nan nan nan 13 15 16 18 19 22 24 30 29 31 35 37 36 32 30 27 26 25 24 21 20 22 26 28 28 27 26 27 26 22 19 18 18 20 23 25 25 25 26 25 25 22 20 19 16 11 nan nan 11 nan nan nan nan nan nan nan nan nan nan nan nan nan
nan nan nan nan nan nan nan nan nan nan nan nan nan nan nan nan nan nan nan nan nan nan 11 10 16 21 19 20 22 24 24 26 28 33 37 37 33 30 28 26 25 25 22 21 20 21 23 26 27 27 27 26 25 23 19 17 18 20 22 24 24 23 23 22 25 24 21 20 17 14 12 13 12 nan nan nan nan nan nan nan nan nan nan nan nan nan
nan nan nan nan nan nan nan nan nan nan nan nan nan nan nan nan nan nan nan nan 19 nan nan 12 17 17 16 22 25 28 31 33 36 38 38 35 30 27 26 25 25 25 23 21 21 20 21 24 27 27 26 26 26 26 23 18 19 21 23 22 22 21 21 21 19 18 17 16 15 12 12 13 nan nan nan nan nan nan nan nan nan nan nan nan nan nan
nan nan nan nan nan nan nan nan nan nan nan nan nan 20 17 nan nan 21 20 17 19 nan 14 16 19 16 17 20 26 27 29 30 33 34 33 31 28 28 27 26 26 26 24 22 20 21 22 24 27 28 27 27 26 25 22 19 21 22 23 nan nan nan nan 20 nan 16 14 14 14 13 nan nan nan nan nan nan nan nan nan nan nan nan nan nan nan nan
nan nan 15 nan nan nan nan nan nan nan nan nan 24 25 24 22 25 22 20 18 23 23 19 19 17 14 16 22 26 26 29 32 33 35 32 29 29 30 29 28 27 27 25 23 21 22 24 25 27 28 28 27 25 23 20 18 20 21 21 nan 21 21 nan nan nan nan nan nan nan nan nan nan nan nan nan nan nan nan nan nan nan nan nan nan nan nan
nan nan nan nan nan nan nan nan nan nan 16 23 26 26 24 23 24 20 21 19 23 23 20 21 18 16 18 24 29 30 33 37 38 34 30 29 30 31 30 28 28 29 27 24 20 22 25 26 27 28 28 27 24 21 19 19 19 20 nan 20 19 18 16 15 nan nan nan nan nan nan nan nan nan nan nan nan nan nan nan nan nan nan nan nan nan nan
nan nan nan nan nan nan nan nan nan nan nan nan 23 23 21 19 20 21 20 22 21 26 26 22 19 22 24 28 30 29 32 32 33 32 30 28 29 30 29 28 29 30 27 23 22 21 25 27 29 28 28 26 23 20 18 18 19 18 nan nan 16 nan nan nan nan nan nan nan nan nan nan nan nan nan nan nan nan nan nan nan nan nan nan nan nan nan
nan nan nan nan nan nan nan nan nan nan nan nan 15 nan 24 23 22 25 22 22 22 24 22 25 25 26 27 27 29 30 33 30 31 32 31 33 32 30 28 28 28 28 25 23 23 23 25 27 28 27 28 27 24 20 18 17 18 nan nan nan nan nan nan 13 nan nan nan nan nan nan nan nan nan nan nan nan nan nan nan nan nan nan nan nan nan nan
nan nan nan nan nan nan nan nan nan nan nan nan nan 16 19 22 26 25 24 23 22 24 25 24 22 23 24 22 24 27 27 24 25 31 31 28 31 32 32 31 31 30 28 25 25 25 27 29 30 28 28 28 26 22 19 18 18 nan 14 nan nan nan 13 12 nan nan nan nan nan nan nan nan nan nan nan nan nan nan nan nan nan nan nan nan nan nan
nan nan nan nan nan nan nan nan nan nan nan nan 11 17 19 25 26 28 26 23 22 23 25 23 20 20 23 23 23 25 26 23 25 26 28 29 32 32 33 32 32 30 29 29 29 28 29 31 32 30 28 27 25 21 19 18 17 16 13 nan nan nan 12 12 nan nan nan nan nan nan nan nan nan nan nan nan nan nan nan nan nan nan nan nan nan nan
nan nan nan nan nan nan nan nan nan nan nan nan nan 15 15 19 21 27 25 19 20 24 26 22 20 21 21 22 23 24 24 25 27 26 25 31 32 32 35 35 34 32 31 29 29 29 30 30 30 30 28 26 24 23 nan nan 16 15 13 nan nan nan nan nan nan nan nan nan nan nan nan nan nan nan nan nan nan nan nan nan nan nan nan nan nan nan
nan nan nan nan nan nan nan nan nan nan nan nan nan 9 15 17 23 24 nan 18 19 21 24 25 22 22 23 23 25 25 26 27 25 23 27 31 33 34 31 29 30 30 29 28 28 30 30 30 29 29 28 27 22 21 nan nan nan 14 12 11 nan nan nan nan nan nan nan nan nan nan nan nan nan nan nan nan nan nan nan nan nan nan nan nan nan nan
nan nan nan nan nan nan nan nan nan nan nan nan nan nan nan 14 21 24 nan 16 16 25 26 25 23 22 28 30 27 28 28 28 26 27 28 33 34 35 35 32 31 30 30 30 31 31 31 30 31 30 27 24 22 20 nan nan 16 14 11 10 nan nan nan nan nan nan nan nan nan nan nan nan nan nan nan nan nan nan nan nan nan nan nan nan nan nan
nan nan nan nan nan nan nan nan nan nan nan nan nan nan nan nan 21 25 22 13 nan 22 26 25 25 28 27 29 32 32 34 31 27 27 30 35 35 36 35 34 32 31 30 30 28 30 30 31 31 30 28 24 21 20 nan nan nan nan nan nan nan nan nan nan nan nan nan nan nan nan nan nan nan nan nan nan nan nan nan nan nan nan nan nan nan nan
nan nan nan nan nan nan nan nan nan nan nan nan nan nan nan nan nan nan 18 12 nan 23 25 28 28 31 35 37 34 33 29 31 30 30 32 35 36 33 31 29 30 31 33 33 32 32 30 30 30 29 28 22 20 18 nan nan nan nan nan nan nan nan nan nan nan nan nan nan nan nan nan nan nan nan nan nan nan nan nan nan nan nan nan nan nan nan
nan nan nan nan nan nan nan nan nan nan nan nan nan nan 20 25 22 nan nan nan nan 24 25 30 33 34 38 40 34 31 29 29 30 32 33 33 36 35 34 34 33 31 29 30 32 32 30 29 28 27 24 21 20 18 15 nan nan nan nan nan nan nan nan nan nan nan nan nan nan nan nan nan nan nan nan nan nan nan nan nan nan nan nan nan nan nan
nan nan nan nan nan nan nan nan nan nan nan nan nan nan nan 26 nan nan 19 nan nan 25 32 29 34 35 38 35 32 33 32 33 33 33 33 34 36 36 36 37 36 35 35 34 32 30 31 30 28 27 24 21 19 16 14 nan nan nan nan nan nan nan nan nan nan nan nan nan nan nan nan nan nan nan nan nan nan nan nan nan nan nan nan nan nan nan
nan nan nan nan nan nan nan nan nan nan nan nan nan 21 nan nan 24 nan 25 23 23 28 31 34 32 34 35 37 37 34 33 34 32 34 35 34 34 34 34 34 34 34 33 31 31 32 31 28 27 25 22 20 17 14 13 nan nan nan nan nan nan nan nan nan nan nan nan nan nan nan nan nan nan nan nan nan nan nan nan nan nan nan nan nan nan nan
nan nan nan nan nan nan nan nan nan nan nan nan nan nan nan nan nan 23 24 24 28 28 29 33 34 34 34 35 34 35 33 28 31 35 36 36 36 37 36 34 34 35 34 34 32 31 29 29 28 24 21 18 17 14 12 11 nan nan nan nan nan nan nan nan nan nan nan nan nan nan nan nan nan nan nan nan nan nan nan nan nan nan nan nan nan nan
nan nan nan nan nan nan nan nan nan nan 22 19 16 nan nan nan nan 22 25 27 27 29 30 32 33 34 32 33 35 29 30 32 34 34 33 35 36 36 34 33 33 32 32 31 31 30 28 25 24 22 21 19 16 14 12 11 nan nan nan nan nan nan nan nan nan nan nan nan nan nan nan nan nan nan nan nan nan nan nan nan nan nan nan nan nan nan
nan nan nan nan nan nan 27 nan nan nan 20 15 19 22 24 22 20 20 23 24 26 28 30 30 32 32 33 34 34 34 32 33 34 33 34 36 38 38 36 34 33 33 33 32 30 30 27 25 23 21 20 19 16 14 13 12 10 10 nan nan nan nan nan nan nan nan nan nan nan nan nan nan nan nan nan nan nan nan nan nan nan nan nan nan nan nan
nan nan nan nan nan nan 24 nan nan 25 17 14 21 28 28 27 28 24 20 23 25 26 27 28 31 31 32 33 31 34 33 33 35 35 36 37 39 37 35 34 33 31 28 29 29 27 25 23 22 21 20 17 16 15 14 13 12 nan nan nan nan nan nan nan nan nan nan nan nan nan nan nan nan nan nan nan nan nan nan nan nan nan nan nan nan nan
nan nan nan nan nan 24 nan nan nan 35 27 29 34 29 29 26 27 25 21 23 24 28 28 28 27 31 33 32 32 32 34 31 33 36 39 38 38 36 34 32 31 30 30 30 28 27 25 23 22 21 nan 17 16 16 15 14 13 nan nan nan nan nan nan nan nan nan nan nan nan nan nan nan nan nan nan nan nan nan nan nan nan nan nan nan nan nan
nan nan nan nan nan 31 30 27 nan 34 nan nan 33 30 28 25 27 27 20 19 22 27 28 32 30 30 28 29 31 32 33 33 33 37 39 39 37 34 32 31 29 30 30 28 27 25 23 22 22 nan nan 16 16 16 15 nan 13 13 nan nan nan nan nan nan nan nan nan nan nan nan nan nan nan nan nan nan nan nan nan nan nan nan nan nan nan nan
nan nan nan nan nan 26 24 nan 28 23 nan 16 17 21 21 23 24 24 20 16 20 23 26 29 28 24 24 24 24 29 32 35 36 36 36 34 32 30 31 32 31 30 30 29 27 24 23 22 21 19 nan nan 15 nan nan nan nan nan nan nan nan nan nan nan nan nan nan nan nan nan nan nan nan nan nan nan nan nan nan nan nan nan nan nan nan nan
Wind_Direction
nan nan nan nan nan nan nan nan nan nan nan nan nan nan nan nan nan nan nan nan nan 335 14 12 19 nan nan nan nan 349 343 359 8 7 5 5 5 1 2 9 14 14 18 4 4 2 3 3 355 344 336 336 338 337 336 336 338 337 338 336 340 337 333 331 331 333 334 334 332 333 337 339 340 334 329 327 nan nan nan nan nan nan nan nan nan nan
nan nan nan nan nan nan nan nan nan nan nan nan nan nan nan nan nan nan nan nan nan nan nan nan nan nan 44 nan nan 345 335 7 2 1 356 5 3 360 3 10 14 16 3 356 360 1 359 357 354 345 336 331 333 336 331 335 336 334 332 334 333 334 336 336 335 335 337 339 339 336 338 338 340 336 333 332 nan nan nan nan nan nan nan nan nan nan
nan nan nan nan nan nan nan nan nan nan nan nan nan nan nan nan nan nan nan nan nan nan nan nan nan 36 48 nan 358 357 5 5 353 353 358 358 0 357 3 13 14 11 11 3 2 359 0 357 352 347 341 338 338 333 334 333 328 328 327 327 326 329 332 333 333 333 334 337 337 334 333 334 332 331 327 326 nan nan nan nan nan nan nan nan nan nan
nan nan nan nan nan nan nan nan nan nan nan nan nan nan nan nan nan nan nan nan nan nan nan nan nan nan nan nan nan nan 13 23 350 1 3 349 2 359 7 9 10 13 7 7 4 2 360 357 355 350 344 336 328 325 326 325 327 323 323 322 323 325 325 325 327 326 326 328 330 329 326 323 326 332 323 nan nan nan nan nan nan nan nan nan nan nan
nan nan nan nan nan nan nan nan nan nan nan nan nan nan nan nan nan nan nan nan nan nan nan nan nan nan nan nan nan nan nan nan 51 8 36 9 7 359 355 1 5 10 6 4 6 3 359 357 360 356 340 327 328 327 329 328 327 321 324 322 323 324 323 321 322 319 317 316 317 318 315 314 311 310 313 nan nan nan nan nan nan nan nan nan nan nan
nan nan nan nan nan nan nan nan nan nan nan nan nan nan nan nan nan nan nan nan nan nan nan nan nan nan nan nan nan nan nan nan nan 46 50 24 10 347 5 7 0 4 360 3 7 5 2 360 355 352 344 336 333 331 333 332 329 322 319 320 322 322 323 322 319 316 315 316 317 319 320 321 319 320 321 321 nan nan nan nan nan nan nan nan nan nan
nan nan nan nan nan nan nan nan nan nan nan nan nan nan nan nan nan nan nan nan nan nan nan nan nan nan nan nan nan nan nan nan nan nan nan 13 8 6 15 357 358 357 357 1 5 2 1 358 353 352 349 345 339 338 329 327 323 321 319 321 323 323 321 319 316 316 313 314 317 322 323 321 320 318 318 312 310 nan nan nan nan nan nan nan nan nan
nan nan nan nan nan nan nan nan nan nan nan nan nan nan nan nan nan nan nan nan nan nan nan nan nan nan nan nan nan nan nan nan nan nan nan nan 7 10 8 346 349 354 356 359 3 3 0 357 355 354 353 347 346 333 325 324 320 320 319 318 320 319 319 317 313 315 314 314 316 318 319 317 314 313 311 308 305 nan nan nan nan nan nan nan nan nan
nan nan nan nan nan nan nan nan nan nan nan nan nan nan nan nan nan nan nan nan nan nan nan nan nan nan nan nan nan nan nan nan nan nan 112 70 nan 325 319 344 348 354 358 358 1 2 359 358 358 354 351 347 335 331 329 324 317 313 313 315 315 316 315 313 314 312 311 310 312 314 313 312 308 303 300 298 295 295 297 nan nan nan nan nan nan nan
nan nan nan nan nan nan nan nan nan nan nan nan nan nan nan nan nan nan nan nan nan nan nan nan nan nan nan nan nan nan nan 142 95 95 93 48 338 330 341 344 346 351 356 0 4 2 1 359 356 351 343 337 342 333 323 316 311 312 311 315 319 317 313 310 311 308 307 306 305 307 308 308 304 297 293 294 294 292 294 nan nan nan nan nan nan nan
nan nan nan nan nan nan nan nan nan nan nan nan nan nan nan nan nan nan nan nan nan nan nan nan nan nan nan nan 297 287 314 9 92 110 334 286 314 337 343 340 342 348 355 358 1 1 1 357 348 340 343 342 336 332 324 320 316 313 316 318 321 320 312 310 307 304 304 301 301 302 303 304 302 298 293 290 289 288 289 nan nan nan nan nan nan nan
nan nan nan nan nan nan nan nan nan nan nan nan nan nan nan nan nan nan nan nan nan nan nan nan nan nan nan nan 292 319 337 346 21 83 138 228 332 340 341 342 345 349 354 354 353 354 352 344 339 335 339 337 335 330 328 320 317 317 318 318 319 315 311 305 301 299 298 296 297 296 300 300 299 297 290 289 nan 290 290 nan nan nan nan nan nan nan
nan nan nan nan nan nan nan nan nan nan nan nan nan nan nan nan nan nan nan nan nan nan nan nan nan nan nan nan 318 322 307 231 234 320 29 27 346 342 346 347 347 349 349 347 348 348 347 348 340 338 334 328 331 333 328 322 318 317 316 317 315 312 310 306 300 296 289 285 289 291 294 294 294 291 282 nan nan nan nan nan nan nan nan nan nan nan
nan nan nan nan nan nan nan nan nan nan nan nan nan nan nan nan nan nan nan nan nan nan nan nan nan nan nan nan 331 336 267 256 266 291 333 329 332 341 344 341 341 346 346 346 346 348 349 345 340 332 326 324 323 324 322 318 314 312 309 309 310 309 311 313 309 304 295 281 274 278 287 291 290 285 278 272 274 nan nan nan nan nan nan nan nan nan
nan nan nan nan nan nan nan nan nan nan nan nan nan nan nan nan nan nan nan nan nan nan nan nan nan nan nan nan 323 331 350 309 316 342 342 317 326 328 328 323 325 336 341 340 345 346 346 341 334 327 319 315 316 317 316 312 310 306 307 309 314 313 313 311 311 310 307 292 277 271 275 282 282 278 275 271 270 278 nan nan nan nan nan nan nan nan
nan nan nan nan nan nan nan nan nan nan nan nan nan nan nan nan nan nan nan nan nan nan nan nan nan nan nan nan 323 314 327 289 289 303 294 287 305 310 296 301 320 332 338 339 340 337 332 326 323 317 314 314 314 319 316 315 311 310 309 311 312 315 314 310 309 308 303 292 283 278 273 277 281 276 269 270 269 271 279 nan nan nan nan nan nan nan
nan nan nan nan nan nan nan nan nan nan nan nan nan nan nan nan nan nan nan nan nan nan nan nan nan nan nan nan 328 315 331 305 322 312 288 295 313 310 302 312 326 331 332 336 335 333 327 322 321 319 318 318 320 323 327 321 313 309 306 308 309 306 303 304 305 301 297 292 285 281 276 270 278 284 277 272 272 273 278 nan nan nan nan nan nan nan
nan nan nan nan nan nan nan nan nan nan nan nan nan nan nan nan nan nan nan nan nan nan nan nan nan nan nan 299 291 269 274 299 295 298 294 289 287 284 305 318 326 327 331 330 326 323 321 320 319 316 318 323 327 332 327 316 306 302 304 298 297 298 303 313 313 295 284 288 287 277 273 273 278 283 280 276 276 276 276 nan nan nan nan nan nan nan
nan nan nan nan nan nan nan nan nan nan nan nan nan nan nan nan nan nan nan nan nan nan nan nan nan nan nan nan 277 294 308 299 299 293 281 280 287 304 318 322 322 323 324 319 316 314 307 309 312 315 319 322 327 324 316 315 320 320 314 305 301 303 294 318 331 297 277 283 296 279 273 276 276 279 284 282 277 277 nan nan nan nan nan nan nan nan
nan nan nan nan nan nan nan nan nan nan nan nan nan nan nan nan nan nan nan nan nan nan nan nan nan nan nan 300 299 311 321 311 309 295 300 305 310 323 324 321 322 322 321 319 318 314 309 308 308 310 312 313 316 315 315 324 324 325 330 324 324 317 299 nan nan nan 279 278 282 282 276 277 281 283 286 282 276 279 nan nan nan nan nan nan nan nan
nan nan nan nan nan nan nan nan nan nan nan nan nan nan nan nan nan nan nan nan nan nan nan nan nan nan 299 315 312 315 313 314 315 314 317 318 322 324 324 324 323 322 320 318 317 312 308 308 310 310 313 315 318 315 315 328 330 321 319 324 335 339 315 nan 326 323 339 6 350 337 320 293 292 290 283 279 nan 283 nan nan nan nan nan nan nan nan
nan nan nan nan nan nan nan nan nan nan nan nan nan nan nan nan nan nan nan nan nan nan nan nan nan nan 12 318 336 328 319 318 319 317 321 326 326 327 328 328 326 325 324 321 316 310 308 309 310 311 315 317 319 320 322 332 322 315 319 324 332 317 nan nan 30 352 352 350 341 346 336 299 298 290 284 289 292 nan nan nan nan nan nan nan nan nan
nan nan nan nan nan nan nan nan nan nan nan nan nan nan nan nan nan nan nan nan nan nan nan nan nan nan 331 329 338 337 323 321 323 320 323 326 330 332 329 326 326 326 326 322 315 310 308 309 311 313 317 317 318 320 323 327 322 319 322 319 322 326 328 nan 356 354 342 341 340 342 326 298 307 292 293 nan 287 nan nan nan nan nan nan nan nan nan
nan nan nan nan nan nan nan nan nan nan nan nan nan nan nan nan nan nan nan nan nan nan nan nan nan 328 315 311 321 317 315 316 322 325 325 331 332 330 326 324 324 325 322 319 314 312 310 310 310 314 320 323 324 327 329 330 327 325 330 334 342 346 339 336 342 343 341 nan nan 337 314 293 311 305 nan nan nan nan nan nan nan nan nan nan nan nan
nan nan nan nan nan nan nan nan nan nan nan nan nan nan nan nan nan nan nan nan nan nan nan nan nan 310 310 301 307 312 315 322 328 330 330 329 328 326 325 327 330 328 325 321 315 311 310 309 309 314 323 326 326 327 325 327 327 323 326 336 344 342 336 335 338 nan nan nan nan 327 309 290 296 293 nan nan nan nan nan nan nan nan nan nan nan nan
nan nan nan nan nan nan nan nan nan nan nan nan nan nan nan nan nan nan nan nan nan nan nan nan nan 322 318 313 307 313 316 321 330 330 325 323 325 324 325 332 335 332 327 324 317 311 310 313 315 318 325 330 330 330 330 329 326 321 326 332 339 339 337 333 331 324 316 311 nan 306 299 nan 295 nan nan nan nan nan nan nan nan nan nan nan nan nan
nan nan nan nan nan nan nan nan nan nan nan nan nan nan nan nan nan nan nan nan nan nan nan nan 328 320 322 318 317 321 325 328 332 327 322 325 326 323 327 333 336 332 328 328 321 318 317 316 317 322 323 325 325 326 330 329 322 319 324 329 335 340 338 335 331 325 318 314 306 299 nan nan 320 nan nan nan nan nan nan nan nan nan nan nan nan nan
nan nan nan nan nan nan nan nan nan nan nan nan nan nan nan nan nan nan nan nan nan nan 299 343 348 330 343 326 328 329 329 326 325 326 328 331 330 329 330 337 334 330 331 331 326 321 319 318 319 320 322 320 321 325 327 323 323 322 328 333 337 338 337 336 330 326 324 323 316 308 317 327 322 nan nan nan nan nan nan nan nan nan nan nan nan nan
nan nan nan nan nan nan nan nan nan nan nan nan nan nan nan nan nan nan nan nan 275 nan nan 337 335 330 330 335 330 333 328 330 331 335 335 333 330 329 333 337 336 334 334 335 333 329 325 323 322 323 323 322 320 323 324 323 325 329 332 335 336 337 337 337 334 331 330 329 321 315 323 333 nan nan nan nan nan nan nan nan nan nan nan nan nan nan
nan nan nan nan nan nan nan nan nan nan nan nan nan 223 234 nan nan 257 265 262 269 nan 300 319 324 330 323 318 325 326 328 320 324 326 329 335 338 337 336 338 339 338 338 343 338 331 331 327 326 328 328 327 324 322 322 322 327 332 334 nan nan nan nan 341 nan 342 340 338 337 331 nan nan nan nan nan nan nan nan nan nan nan nan nan nan nan nan
nan nan 260 nan nan nan nan nan nan nan nan nan 227 228 234 244 254 258 267 276 280 273 276 291 301 310 316 312 312 312 312 313 319 331 340 341 337 338 338 341 341 342 343 344 340 334 334 329 327 328 328 328 326 324 322 325 327 330 331 nan 335 335 nan nan nan nan nan nan nan nan nan nan nan nan nan nan nan nan nan nan nan nan nan nan nan nan
nan nan nan nan nan nan nan nan nan nan 242 246 229 225 232 244 258 263 268 280 278 284 282 284 292 308 312 308 309 312 318 323 330 334 337 339 340 339 341 343 344 346 346 345 344 337 334 332 329 328 328 328 327 324 325 328 328 329 nan 336 336 339 345 347 nan nan nan nan nan nan nan nan nan nan nan nan nan nan nan nan nan nan nan nan nan nan
nan nan nan nan nan nan nan nan nan nan nan nan 224 228 235 240 254 261 264 270 278 289 283 294 315 315 313 319 315 318 323 326 328 333 336 340 343 344 346 347 346 347 347 345 348 344 336 336 331 329 327 328 328 329 329 330 327 329 nan nan 338 nan nan nan nan nan nan nan nan nan nan nan nan nan nan nan nan nan nan nan nan nan nan nan nan nan
nan nan nan nan nan nan nan nan nan nan nan nan 240 nan 247 247 258 267 272 275 281 280 288 304 307 309 313 319 320 327 330 334 335 341 338 336 340 348 352 351 351 348 345 345 345 344 333 333 330 329 330 328 329 329 329 328 325 nan nan nan nan nan nan 343 nan nan nan nan nan nan nan nan nan nan nan nan nan nan nan nan nan nan nan nan nan nan
nan nan nan nan nan nan nan nan nan nan nan nan nan 236 254 256 261 265 265 271 278 282 283 293 308 319 326 322 321 323 328 326 327 330 336 339 337 342 349 350 352 350 349 349 350 345 336 334 331 329 330 328 331 330 327 326 326 nan 336 nan nan nan 343 345 nan nan nan nan nan nan nan nan nan nan nan nan nan nan nan nan nan nan nan nan nan nan
nan nan nan nan nan nan nan nan nan nan nan nan 240 244 254 260 262 261 258 264 278 291 292 300 319 322 324 321 319 321 323 316 317 328 336 340 343 342 344 349 351 348 351 353 355 345 341 338 336 333 330 331 330 329 328 329 330 332 337 nan nan nan 344 345 nan nan nan nan nan nan nan nan nan nan nan nan nan nan nan nan nan nan nan nan nan nan
nan nan nan nan nan nan nan nan nan nan nan nan nan 263 272 266 266 269 272 269 288 292 302 308 312 321 318 320 321 314 307 306 314 322 334 341 346 347 347 351 349 351 350 350 347 340 341 336 334 333 331 330 330 330 nan nan 327 329 335 nan nan nan nan nan nan nan nan nan nan nan nan nan nan nan nan nan nan nan nan nan nan nan nan nan nan nan
nan nan nan nan nan nan nan nan nan nan nan nan nan 262 259 264 271 268 nan 264 275 292 300 306 317 323 314 313 314 311 305 306 316 331 334 339 342 344 347 345 345 345 346 344 334 332 333 333 330 331 330 329 328 327 nan nan nan 330 336 339 nan nan nan nan nan nan nan nan nan nan nan nan nan nan nan nan nan nan nan nan nan nan nan nan nan nan
nan nan nan nan nan nan nan nan nan nan nan nan nan nan nan 274 277 269 nan 255 284 297 303 309 314 321 319 315 314 307 306 313 326 333 333 332 337 339 340 344 343 343 344 343 339 333 333 333 331 329 327 326 325 324 nan nan 326 329 337 343 nan nan nan nan nan nan nan nan nan nan nan nan nan nan nan nan nan nan nan nan nan nan nan nan nan nan
nan nan nan nan nan nan nan nan nan nan nan nan nan nan nan nan 263 260 267 275 nan 300 306 308 316 321 318 313 310 309 314 318 322 326 327 328 331 334 336 339 340 341 342 335 329 329 329 328 327 328 329 329 326 322 nan nan nan nan nan nan nan nan nan nan nan nan nan nan nan nan nan nan nan nan nan nan nan nan nan nan nan nan nan nan nan nan
nan nan nan nan nan nan nan nan nan nan nan nan nan nan nan nan nan nan 287 317 nan 302 310 310 313 313 312 311 312 311 322 315 318 322 319 321 320 321 323 329 335 336 337 333 331 330 329 331 331 331 330 324 321 321 nan nan nan nan nan nan nan nan nan nan nan nan nan nan nan nan nan nan nan nan nan nan nan nan nan nan nan nan nan nan nan nan
nan nan nan nan nan nan nan nan nan nan nan nan nan nan 256 256 263 nan nan nan nan 303 305 304 304 308 309 311 316 312 309 312 313 317 318 320 321 321 321 322 323 322 322 327 330 330 329 328 326 323 321 319 320 321 319 nan nan nan nan nan nan nan nan nan nan nan nan nan nan nan nan nan nan nan nan nan nan nan nan nan nan nan nan nan nan nan
nan nan nan nan nan nan nan nan nan nan nan nan nan nan nan 254 nan nan 273 nan nan 294 297 294 299 305 304 305 303 305 304 306 313 317 317 319 320 321 321 324 326 327 327 328 330 334 331 327 327 326 322 318 319 319 319 nan nan nan nan nan nan nan nan nan nan nan nan nan nan nan nan nan nan nan nan nan nan nan nan nan nan nan nan nan nan nan
nan nan nan nan nan nan nan nan nan nan nan nan nan 245 nan nan 256 nan 272 269 272 284 291 290 292 298 304 305 309 304 305 308 309 313 316 318 319 317 318 321 323 324 326 329 332 333 332 326 324 321 318 314 313 314 315 nan nan nan nan nan nan nan nan nan nan nan nan nan nan nan nan nan nan nan nan nan nan nan nan nan nan nan nan nan nan nan
nan nan nan nan nan nan nan nan nan nan nan nan nan nan nan nan nan 262 264 272 279 277 280 289 295 295 303 304 305 306 306 313 314 318 319 324 324 323 323 325 326 327 327 330 333 333 331 330 327 321 314 312 314 311 312 315 nan nan nan nan nan nan nan nan nan nan nan nan nan nan nan nan nan nan nan nan nan nan nan nan nan nan nan nan nan nan
nan nan nan nan nan nan nan nan nan nan 213 207 229 nan nan nan nan 251 259 263 264 277 286 291 294 300 303 306 305 308 310 312 312 315 316 322 325 324 323 321 321 323 324 327 330 332 329 323 320 318 313 309 309 306 307 307 nan nan nan nan nan nan nan nan nan nan nan nan nan nan nan nan nan nan nan nan nan nan nan nan nan nan nan nan nan nan
nan nan nan nan nan nan 238 nan nan nan 200 222 219 219 231 231 229 239 249 256 271 277 278 283 300 306 309 311 312 311 310 310 311 312 317 321 325 327 326 325 325 327 330 333 333 329 326 324 320 319 314 309 308 304 305 303 301 298 nan nan nan nan nan nan nan nan nan nan nan nan nan nan nan nan nan nan nan nan nan nan nan nan nan nan nan nan
nan nan nan nan nan nan 228 nan nan 196 207 222 225 222 220 218 218 217 241 259 268 274 280 290 294 296 301 307 307 306 308 311 313 315 319 322 324 326 325 326 326 326 330 331 331 328 325 324 320 317 312 309 308 307 305 301 300 nan nan nan nan nan nan nan nan nan nan nan nan nan nan nan nan nan nan nan nan nan nan nan nan nan nan nan nan nan
nan nan nan nan nan 219 nan nan nan 197 208 202 196 211 222 223 226 226 231 251 263 272 277 281 289 301 306 306 302 303 307 315 316 318 319 319 321 324 326 326 328 330 331 333 333 330 329 323 318 316 nan 311 310 309 307 305 304 nan nan nan nan nan nan nan nan nan nan nan nan nan nan nan nan nan nan nan nan nan nan nan nan nan nan nan nan nan
nan nan nan nan nan 222 223 206 nan 212 nan nan 186 191 205 216 230 236 231 247 262 275 281 286 287 290 292 299 305 308 312 315 315 316 318 321 325 326 325 326 329 333 335 335 332 329 324 322 320 nan nan 310 310 311 309 nan 307 309 nan nan nan nan nan nan nan nan nan nan nan nan nan nan nan nan nan nan nan nan nan nan nan nan nan nan nan nan
nan nan nan nan nan 221 212 nan 212 218 nan 205 193 187 199 218 228 237 242 249 264 277 288 292 292 291 295 299 304 309 312 315 317 315 316 322 329 330 329 329 332 336 336 334 330 327 326 324 321 317 nan nan 310 nan nan nan nan nan nan nan nan nan nan nan nan nan nan nan nan nan nan nan nan nan nan nan nan nan nan nan nan nan nan nan nan nan